SCP
1 2 3 3 3 3 2 2 2 2 2 1 1 1 1 1 1 1 1 1 1 1 1 1 1 1 1 1 1 1 1 0 0 0 0 0 0 0 0 0 0 0 0
1 2 3 3 3 3 2 2 2 2 2 2 1 1 1 1 1 1 1 1 1 1 1 1 1 1 1 1 1 1 1 1 0 0 0 0 0 0 0 0 0 0 0
1 2 3 3 3 3 2 2 2 2 2 2 1 1 1 1 1 1 1 1 1 1 1 1 1 1 2 1 1 1 1 1 0 0 0 0 0 0 0 0 0 0 0
1 2 3 3 3 3 2 2 2 2 2 2 2 1 1 1 1 1 1 1 1 1 1 1 1 1 1 1 1 1 1 1 0 0 0 0 0 0 0 0 0 0 0
1 1 2 3 3 3 2 2 2 3 3 2 2 2 1 1 1 1 1 1 1 1 1 1 1 1 1 1 1 1 1 1 0 0 0 0 0 0 0 0 0 0 0
1 1 2 3 3 3 2 2 2 3 3 2 2 2 2 1 1 1 1 1 1 1 1 1 1 1 2 1 1 1 1 1 0 0 0 0 0 0 0 0 0 0 0
1 1 2 2 3 3 3 3 3 3 3 2 2 2 2 2 2 1 1 1 1 1 1 1 2 2 2 1 1 1 1 1 0 0 0 0 0 0 0 0 0 0 0
1 1 1 2 3 3 3 3 3 3 3 3 2 2 2 2 2 1 1 1 1 1 2 2 2 2 2 1 1 1 1 1 0 0 0 0 0 0 0 0 0 0 0
1 1 1 2 2 3 3 3 3 3 3 2 2 2 2 2 2 1 1 1 1 2 2 2 2 2 2 1 1 1 1 1 0 0 0 0 0 0 0 0 0 0 0
1 1 1 2 2 2 2 3 3 3 3 2 2 2 2 2 2 1 1 1 1 2 2 2 2 2 2 1 1 1 1 1 0 0 0 0 0 0 0 1 0 0 0
1 1 1 2 2 2 2 2 3 3 2 2 2 2 2 2 1 1 1 1 1 2 2 1 2 2 1 1 1 1 1 1 1 0 0 0 0 0 0 1 1 0 0
0 1 1 1 2 2 2 2 3 3 2 2 2 2 2 2 1 1 1 1 1 1 1 1 1 1 1 1 1 1 1 1 1 0 0 0 0 0 1 1 1 1 0
0 1 1 1 2 2 2 3 3 3 3 2 2 2 2 2 2 2 1 1 1 1 1 1 1 1 2 2 1 1 1 1 1 1 1 0 0 0 1 1 1 1 1
0 1 1 1 1 2 2 3 3 3 3 3 3 2 2 2 2 2 2 2 2 2 2 2 2 2 2 2 1 1 1 1 1 1 0 0 0 0 0 0 0 1 1
0 1 1 1 1 2 2 3 3 3 4 4 3 2 2 2 2 2 2 2 2 2 2 2 2 2 2 2 1 1 1 1 0 0 0 0 0 0 0 0 0 0 1
0 1 1 1 1 2 3 3 2 3 3 3 3 2 2 2 2 2 2 2 2 2 2 2 2 2 2 2 2 1 1 1 0 0 0 0 0 0 0 0 0 0 0
0 1 1 1 1 2 2 2 2 2 3 3 3 2 2 2 2 2 2 2 2 2 2 2 2 2 2 2 2 1 1 1 1 0 0 0 0 0 0 0 0 0 0
0 0 1 1 1 2 2 2 2 2 2 3 2 2 2 1 1 1 2 1 1 2 2 2 2 2 2 2 2 1 1 1 1 0 0 0 0 0 0 0 0 0 0
1 1 1 1 1 1 2 2 2 2 2 2 2 2 1 1 1 1 2 1 1 1 2 2 2 2 2 2 1 1 1 1 1 0 0 0 0 0 0 0 0 0 0
1 1 1 1 1 1 2 2 2 2 2 2 2 1 1 1 1 2 2 1 1 1 1 1 2 2 2 2 1 1 1 1 1 1 0 0 0 0 0 0 0 0 0
1 1 1 1 1 1 1 2 3 3 2 2 1 1 1 1 2 2 2 1 1 1 1 1 2 2 2 2 1 1 1 1 1 1 0 0 0 0 0 0 0 0 0
1 1 1 1 1 1 1 1 2 2 2 2 1 1 1 1 2 2 1 1 1 1 1 1 1 2 2 2 1 1 1 1 1 1 0 0 0 0 0 0 0 0 0
1 2 2 1 1 1 1 1 1 1 2 2 2 1 1 1 1 1 1 1 1 1 1 1 1 1 2 1 1 1 0 1 1 0 0 0 0 0 0 0 0 0 0
1 1 2 2 1 1 1 1 1 1 1 1 1 1 1 1 1 1 1 1 1 2 1 1 1 1 1 1 1 1 0 0 0 0 0 0 0 0 0 0 0 0 0
0 1 1 1 1 1 1 1 1 1 1 1 1 1 1 1 1 1 1 1 2 2 2 2 1 1 1 1 1 1 1 0 0 0 0 0 0 0 0 0 1 1 0
0 0 0 1 1 1 1 1 1 1 1 1 1 1 0 0 0 1 1 1 2 2 2 2 2 1 1 1 1 1 1 0 0 0 0 0 0 0 0 1 1 1 1
Wind_Speed
2 6 10 10 11 11 11 11 10 10 9 10 10 10 10 9 9 9 9 9 8 8 8 9 9 9 9 9 9 9 9 9 10 9 9 9 9 9 9 8 6 7 9
2 7 10 10 11 11 11 10 10 10 9 9 9 10 9 9 9 9 9 9 8 8 8 8 9 9 9 9 9 9 9 9 9 9 8 8 8 8 8 7 5 7 8
3 7 11 9 10 10 10 10 10 10 10 9 9 9 9 9 9 9 9 9 8 8 8 8 8 8 9 9 9 8 8 9 8 7 5 6 8 8 8 7 7 8 7
3 6 9 9 9 10 10 9 9 9 9 9 9 9 9 9 9 9 8 8 8 7 7 7 7 8 8 8 8 8 8 8 7 5 4 5 6 8 7 6 6 7 7
3 5 7 8 9 10 10 9 9 9 9 9 9 9 9 9 9 9 8 8 7 7 6 6 7 7 8 8 8 8 8 7 6 5 4 4 4 7 6 6 6 6 5
2 5 6 7 9 9 10 10 9 9 9 10 9 9 9 9 9 9 8 8 7 7 6 6 6 7 7 7 8 8 8 7 7 5 4 4 4 7 6 6 5 5 5
2 4 6 7 9 9 9 9 9 9 9 10 10 10 10 10 9 9 8 8 8 7 7 7 6 7 7 7 7 7 7 6 5 5 4 4 4 6 6 6 5 5 5
2 4 5 8 8 9 9 9 9 9 9 9 10 10 10 10 10 9 9 9 8 8 8 8 7 7 7 7 7 7 7 6 5 5 5 4 5 5 6 6 6 5 5
3 4 5 7 8 9 8 8 8 8 9 9 9 9 9 9 9 10 9 9 9 9 9 9 8 8 8 7 7 7 7 5 6 5 5 4 5 6 7 7 6 6 6
3 5 6 7 8 9 9 9 8 8 8 9 9 8 8 8 9 9 9 9 9 9 9 10 9 9 8 8 8 8 7 7 8 6 5 4 6 8 8 7 7 7 7
4 5 6 7 7 7 8 8 9 9 9 8 8 8 8 9 9 9 10 8 9 9 10 10 10 10 8 8 9 8 8 7 7 5 5 4 8 9 9 9 9 9 8
6 6 6 7 7 7 6 7 7 8 8 9 8 9 8 8 7 7 7 8 9 9 9 10 10 10 9 7 8 9 7 8 7 6 5 6 10 11 11 10 10 10 10
6 6 6 7 7 7 5 5 5 5 6 8 9 9 7 7 5 6 5 6 8 9 8 8 9 8 8 6 6 7 7 7 5 5 6 9 11 12 12 12 12 12 12
6 6 6 7 7 7 6 5 6 5 5 5 7 9 7 5 6 5 5 6 6 5 6 7 6 8 9 9 9 9 9 6 6 5 5 9 12 13 14 14 14 14 14
6 6 6 6 7 7 7 5 6 6 6 6 6 7 8 6 6 6 5 5 6 6 7 7 7 8 9 9 9 10 10 10 9 8 5 10 12 14 15 15 15 15 15
7 7 6 7 7 7 7 6 6 6 6 6 6 7 9 7 7 6 6 6 6 6 7 7 8 8 7 7 9 10 10 10 10 10 8 8 13 15 16 17 17 17 17
7 6 6 6 7 7 8 8 6 6 6 6 6 8 9 9 8 7 7 6 6 7 8 7 8 7 7 7 9 10 9 10 10 11 10 8 9 13 16 17 18 18 18
6 5 5 5 6 7 6 6 5 6 6 5 6 7 9 10 10 8 7 7 7 6 6 6 7 7 7 7 8 8 8 8 11 11 10 10 9 9 12 16 18 18 18
4 4 4 4 5 5 5 5 6 6 6 5 6 6 8 10 10 9 8 7 7 6 7 7 7 7 7 8 7 7 8 8 9 10 12 12 11 10 9 11 14 16 17
3 3 3 4 4 4 4 4 4 5 5 5 6 7 9 8 10 9 8 9 8 7 7 8 8 8 7 7 7 8 8 9 9 10 11 11 10 12 12 11 10 12 17
2 3 3 3 3 3 3 4 4 5 5 5 6 8 9 9 10 9 8 9 9 8 9 10 9 9 8 6 6 6 8 10 11 9 10 10 11 12 12 12 11 10 9
2 2 3 2 3 3 3 4 4 4 4 5 5 7 9 9 9 8 10 9 9 9 11 11 10 8 7 7 6 4 5 7 8 9 10 10 11 10 11 12 12 12 10
2 2 3 3 3 3 3 3 3 4 4 4 5 5 7 8 10 10 11 10 10 10 9 11 10 11 9 8 8 6 5 6 4 7 10 10 10 10 10 10 13 12 12
2 2 3 3 4 3 3 4 5 5 5 6 5 5 7 8 9 10 10 11 10 10 10 11 11 10 10 8 8 9 9 6 6 5 6 8 10 11 11 9 11 12 12
3 3 3 4 4 4 4 4 5 5 6 5 5 7 7 7 8 9 10 10 11 10 11 12 11 11 10 10 8 7 9 8 10 8 7 7 7 8 10 10 9 9 11
4 3 4 4 5 4 5 5 5 6 7 7 7 6 6 5 6 9 9 10 10 10 11 11 11 13 11 12 10 9 8 8 8 9 10 9 8 7 9 8 9 9 9
Wind_Direction
184 176 170 179 172 169 168 168 165 164 163 162 160 160 159 158 155 153 152 149 147 144 142 138 137 136 132 128 124 120 116 113 112 108 108 108 107 105 104 106 116 103 96
171 172 168 177 173 173 173 171 166 165 163 161 163 163 162 162 160 158 155 153 150 147 145 143 140 140 136 132 127 121 117 113 110 107 110 114 112 111 107 102 88 93 101
150 166 170 176 175 175 176 175 172 170 166 166 167 167 166 165 164 162 161 157 153 150 149 146 143 143 142 138 134 129 124 119 115 117 142 137 122 119 115 109 104 107 111
151 166 172 169 177 175 176 176 176 173 171 169 171 172 172 171 170 168 164 160 156 153 151 150 146 144 144 143 140 138 135 129 125 156 170 137 131 121 122 122 118 112 111
157 171 164 167 179 178 178 176 178 178 176 175 175 177 177 178 177 175 171 167 159 156 156 155 153 148 146 147 146 146 145 140 144 194 158 148 138 129 133 131 128 124 123
168 181 166 177 184 185 183 180 180 182 183 183 181 181 182 184 183 181 178 173 165 160 160 162 161 159 156 154 153 151 151 150 180 181 169 166 152 138 146 143 142 145 148
190 193 179 184 192 190 189 187 184 185 187 188 189 190 190 189 189 187 183 178 175 173 173 174 175 174 174 169 166 161 159 168 203 184 180 177 152 149 163 161 163 167 172
227 208 194 190 203 198 195 194 192 191 192 194 195 197 197 197 195 191 189 184 185 185 186 188 186 184 183 183 181 174 168 186 203 196 191 183 156 176 181 179 181 182 181
240 219 213 203 203 206 202 199 197 197 198 198 200 202 205 203 201 199 193 191 194 196 195 197 197 194 190 191 191 184 175 194 217 201 198 192 171 194 198 195 196 198 196
245 230 223 218 212 211 206 199 200 201 203 203 206 205 204 206 206 204 200 196 199 203 202 203 203 204 201 199 196 188 178 199 218 206 207 186 184 207 211 209 209 212 209
248 240 232 228 221 220 219 205 202 203 203 206 209 203 204 213 212 206 208 197 202 206 207 208 207 210 206 201 195 186 189 214 214 216 215 182 204 215 219 219 217 219 216
249 239 233 230 226 223 222 216 213 211 209 213 218 212 214 221 220 218 196 197 205 208 211 213 213 212 214 208 192 190 211 218 219 216 208 193 217 221 224 224 223 223 220
260 247 240 234 229 224 221 223 218 215 215 218 220 218 219 222 220 217 206 196 206 210 214 207 211 218 218 216 212 213 222 222 222 219 207 198 222 228 229 230 229 228 226
260 250 245 239 233 229 224 225 223 217 215 217 218 218 217 217 221 218 216 214 214 214 216 218 222 223 225 221 220 220 222 224 227 227 210 199 224 233 234 234 233 233 231
259 252 243 240 237 231 226 226 228 221 218 217 218 218 218 217 222 223 222 218 221 222 219 222 225 226 227 227 226 227 227 228 229 230 218 203 223 234 238 238 238 237 235
257 253 245 240 238 234 228 225 228 226 220 220 219 221 221 222 222 225 226 223 225 225 226 227 229 230 232 231 230 231 234 233 232 233 237 217 218 231 238 240 240 241 240
263 259 251 246 239 234 235 232 232 229 223 220 221 223 223 224 224 226 228 226 225 225 227 231 232 233 235 233 234 235 236 236 235 235 236 237 227 222 232 240 243 242 243
263 257 254 248 239 231 235 238 236 232 224 223 225 227 227 227 226 227 229 229 227 224 222 225 228 229 232 234 236 236 237 236 238 238 236 235 236 233 225 230 241 244 245
259 255 248 244 240 232 234 238 242 231 226 226 227 229 229 230 229 228 230 231 227 225 224 225 227 228 234 236 240 241 241 239 239 238 238 237 236 237 237 223 228 241 246
260 257 247 239 239 230 225 234 238 232 231 230 230 231 232 232 232 233 232 232 228 225 225 225 226 228 234 236 241 244 244 241 237 237 238 238 237 236 236 238 231 229 233
252 254 248 244 235 229 229 227 227 231 233 234 233 235 234 235 234 234 235 233 228 226 228 228 227 229 229 230 237 246 249 245 241 237 237 236 236 235 236 236 237 238 229
255 252 245 249 248 242 244 237 236 242 239 242 240 240 238 237 236 236 236 233 230 229 230 229 226 227 228 217 219 236 248 241 234 236 235 236 239 236 234 235 236 236 239
256 256 257 247 247 250 253 244 239 241 239 237 238 240 240 240 237 234 237 238 234 231 232 230 225 225 227 221 217 219 231 240 249 228 231 233 234 235 234 232 235 236 237
288 275 263 255 248 251 251 247 241 247 249 252 251 246 247 246 245 240 238 238 238 235 234 232 227 228 228 226 222 227 240 253 248 249 228 232 237 238 237 235 236 235 235
314 305 289 276 264 261 255 248 248 253 258 260 257 255 253 248 245 245 243 242 240 238 237 234 230 228 227 228 225 222 233 243 244 247 252 241 237 238 239 238 236 237 234
326 318 307 294 285 277 266 252 249 258 260 258 257 258 258 256 250 248 246 244 243 241 239 235 232 230 230 231 229 225 222 224 230 236 246 247 248 243 240 239 238 237 235